FW8419 Weather Reports


Display with metric or nautical units.
time (UTC)temp
F
wind
direction
speed
MPH
gust
MPH
rain 1hr
in
rain 24hr
in
rain mn
in
humidity
%
barometer
mb
20260903064122 58 136 4.0 11.0 0.00 0.23 0.21 85 1005.9
20260903063127 58 147 4.0 11.0 0.00 0.23 0.21 84 1005.8
20260903063122 58 148 4.0 11.0 0.00 0.23 0.21 84 1005.8
20260903062122 58 148 5.0 13.0 0.00 0.23 0.21 84 1005.8
20260903061122 58 143 3.0 10.0 0.00 0.23 0.21 84 1005.7
20260903060148 58 137 5.0 13.0 0.00 0.23 0.21 84 1005.7
20260903060143 58 136 5.0 13.0 0.00 0.23 0.21 84 1005.8
20260903055125 58 134 5.0 14.0 0.00 0.23 0.21 84 1005.6
20260903054122 59 144 4.0 11.0 0.00 0.23 0.21 84 1005.6
20260903053122 59 135 4.0 11.0 0.00 0.23 0.21 84 1005.7
20260903052123 59 126 4.0 13.0 0.00 0.23 0.21 85 1005.6
20260903051124 59 124 4.0 11.0 0.00 0.23 0.21 85 1005.4
20260903050123 59 124 5.0 13.0 0.00 0.23 0.21 85 1005.2
20260903045122 59 129 4.0 13.0 0.00 0.23 0.21 86 1005.0
20260903044122 59 135 3.0 11.0 0.00 0.23 0.21 85 1004.8
20260903043123 59 158 3.0 10.0 0.00 0.23 0.21 86 1004.6
20260903042122 59 152 4.0 16.0 0.00 0.23 0.21 86 1004.5
20260903041122 59 157 4.0 16.0 0.00 0.23 0.21 87 1004.2
20260903040124 59 150 4.0 14.0 0.00 0.23 0.21 87 1004.0
20260903035123 59 144 8.0 24.0 0.00 0.23 0.21 88 1003.8
20260903034143 59 140 5.0 13.0 0.01 0.23 0.21 92 1003.4
20260903033143 58 130 4.0 13.0 0.02 0.23 0.21 92 1003.2
20260903032145 59 128 3.0 10.0 0.03 0.23 0.21 92 1003.0
20260903031123 59 119 2.0 6.0 0.05 0.23 0.21 92 1002.9
20260903030122 59 112 2.0 6.0 0.05 0.23 0.21 92 1002.8
20260903025123 59 118 0.0 5.0 0.03 0.21 0.20 92 1002.8
20260903024123 59 129 3.0 11.0 0.03 0.20 0.20 90 1002.8
20260903023122 59 118 4.0 13.0 0.03 0.20 0.18 90 1002.7
20260903022143 59 115 4.0 13.0 0.05 0.18 0.18 90 1002.6
20260903021122 59 116 5.0 16.0 0.05 0.18 0.17 90 1002.5
20260903020122 59 122 4.0 13.0 0.05 0.18 0.17 91 1002.5
20260903015122 59 102 3.0 14.0 0.05 0.18 0.17 90 1002.5
20260903014122 59 102 4.0 11.0 0.05 0.17 0.15 88 1002.7
20260903013122 60 114 3.0 13.0 0.02 0.15 0.14 87 1002.7
20260903012143 60 123 3.0 11.0 0.01 0.14 0.12 85 1002.6
20260903011122 60 131 4.0 13.0 0.00 0.12 0.11 82 1002.7
20260903010122 61 136 5.0 23.0 0.00 0.11 0.10 81 1002.7
20260903005122 61 140 5.0 16.0 0.00 0.11 0.10 81 1002.8
20260903004122 61 128 4.0 18.0 0.05 0.11 0.10 82 1002.9
20260903003122 61 131 6.0 18.0 0.05 0.11 0.10 81 1002.9
20260903002143 61 138 3.0 14.0 0.05 0.11 0.10 82 1002.8
20260903001122 61 183 1.0 5.0 0.05 0.11 0.10 83 1002.8
20260903000122 62 133 4.0 11.0 0.05 0.10 0.10 82 1002.9
20260902235122 62 131 2.0 8.0 0.05 0.10 0.10 83 1002.9
20260902234122 63 126 5.0 16.0 0.01 0.07 0.05 79 1002.7
20260902233123 62 148 4.0 16.0 0.01 0.05 0.05 80 1002.6
20260902232122 62 133 3.0 11.0 0.02 0.05 0.05 84 1002.5
20260902231122 62 131 4.0 13.0 0.02 0.05 0.05 85 1002.5
20260902230122 62 135 4.0 10.0 0.02 0.05 0.05 86 1002.5
20260902225122 62 127 3.0 10.0 0.01 0.05 0.03 86 1002.5
20260902224122 63 126 4.0 11.0 0.02 0.05 0.03 85 1002.4
20260902223122 63 123 4.0 11.0 0.01 0.03 0.02 84 1002.3
20260902222122 63 116 4.0 13.0 0.00 0.02 0.01 81 1002.2
20260902221122 63 120 4.0 11.0 0.00 0.02 0.01 81 1002.4
20260902220122 64 123 4.0 13.0 0.01 0.02 0.01 82 1002.5
20260902215123 64 102 3.0 11.0 0.01 0.02 0.01 80 1002.6
20260902214143 64 87 3.0 11.0 0.00 0.01 0.00 79 1002.8
20260902213122 64 94 2.0 6.0 0.00 0.01 0.00 80 1002.5
20260902212125 65 78 3.0 11.0 0.00 0.01 0.00 79 1002.6
20260902211122 66 84 3.0 13.0 0.00 0.01 0.00 77 1002.8
20260902210122 66 126 4.0 13.0 0.00 0.00 0.00 74 1002.7
20260902205124 68 118 4.0 14.0 0.00 0.00 0.00 70 1002.7
20260902204122 69 119 3.0 11.0 0.00 0.00 0.00 62 1002.6
20260902203143 70 127 3.0 14.0 0.00 0.00 0.00 60 1002.6
20260902202124 70 194 4.0 11.0 0.00 0.00 0.00 56 1002.8
20260902201122 70 183 2.0 10.0 0.00 0.00 0.00 56 1002.7
20260902200143 69 147 5.0 14.0 0.00 0.00 0.00 56 1002.9
20260902195122 69 205 3.0 23.0 0.00 0.00 0.00 56 1003.0
20260902194122 69 181 2.0 11.0 0.00 0.00 0.00 57 1003.1
20260902193122 69 149 4.0 16.0 0.00 0.00 0.00 57 1003.4
20260902192122 68 136 7.0 23.0 0.00 0.00 0.00 57 1003.4
20260902191145 68 139 9.0 26.0 0.00 0.00 0.00 56 1003.5
20260902190122 68 133 8.0 21.0 0.00 0.00 0.00 57 1003.6
20260902185122 68 146 3.0 14.0 0.00 0.00 0.00 58 1003.7
20260902184122 68 142 6.0 21.0 0.00 0.00 0.00 59 1003.8
20260902183122 68 151 8.0 26.0 0.00 0.00 0.00 59 1004.0
20260902182122 68 140 9.0 24.0 0.00 0.00 0.00 59 1004.1
20260902181123 68 144 7.0 23.0 0.00 0.00 0.00 59 1004.2
20260902180124 67 139 8.0 24.0 0.00 0.00 0.00 60 1004.2
20260902175124 67 237 3.0 11.0 0.00 0.00 0.00 63 1004.3
20260902174122 67 161 2.0 11.0 0.00 0.00 0.00 64 1004.4
20260902173143 66 158 5.0 16.0 0.00 0.00 0.00 65 1004.6
20260902172122 66 145 7.0 18.0 0.00 0.00 0.00 65 1004.7
20260902171122 66 136 8.0 23.0 0.00 0.00 0.00 66 1004.9
20260902170145 66 143 9.0 26.0 0.00 0.00 0.00 66 1004.6
20260902165124 65 154 6.0 19.0 0.00 0.00 0.00 68 1004.7
20260902164124 65 134 7.0 16.0 0.00 0.00 0.00 73 1004.7
20260902163122 65 117 5.0 16.0 0.00 0.00 0.00 72 1004.7
20260902162122 65 128 5.0 16.0 0.00 0.00 0.00 73 1004.7
20260902161122 64 130 6.0 16.0 0.00 0.00 0.00 73 1004.7
20260902160122 64 117 5.0 14.0 0.00 0.00 0.00 73 1004.8
20260902155143 64 117 4.0 16.0 0.00 0.00 0.00 74 1004.9
20260902154122 64 132 6.0 21.0 0.00 0.00 0.00 70 1005.1
20260902153122 64 140 5.0 16.0 0.00 0.00 0.00 71 1005.2
20260902152124 64 152 4.0 13.0 0.00 0.00 0.00 71 1005.1
20260902151124 64 141 6.0 21.0 0.00 0.00 0.00 71 1005.2
20260902150143 63 126 3.0 13.0 0.00 0.00 0.00 75 1005.2
20260902145143 64 123 3.0 14.0 0.00 0.00 0.00 75 1005.2
20260902144122 63 145 5.0 16.0 0.00 0.00 0.00 74 1005.4
20260902143123 62 132 5.0 16.0 0.00 0.00 0.00 76 1005.4
20260902142123 62 113 3.0 11.0 0.00 0.00 0.00 81 1005.4
20260902141123 62 108 2.0 5.0 0.00 0.00 0.00 82 1005.5
20260902140124 62 122 3.0 8.0 0.00 0.00 0.00 82 1005.6
20260902135143 62 116 2.0 5.0 0.00 0.00 0.00 79 1005.6
20260902134122 62 131 2.0 11.0 0.00 0.00 0.00 79 1005.7
20260902133122 61 130 4.0 11.0 0.00 0.00 0.00 82 1005.7
20260902132145 61 127 2.0 10.0 0.00 0.00 0.00 84 1005.5
20260902131122 61 126 3.0 11.0 0.00 0.00 0.00 85 1005.4
20260902130124 61 125 2.0 8.0 0.00 0.00 0.00 85 1005.5
20260902125122 61 123 3.0 8.0 0.00 0.00 0.00 85 1005.5
20260902124143 61 128 4.0 11.0 0.00 0.00 0.00 86 1005.6
20260902123124 61 123 4.0 10.0 0.00 0.00 0.00 86 1005.6
20260902122122 61 122 2.0 5.0 0.00 0.00 0.00 86 1005.7
20260902121122 61 127 2.0 6.0 0.00 0.00 0.00 86 1005.7
20260902120124 61 130 1.0 6.0 0.00 0.00 0.00 85 1005.8
20260902115143 61 124 2.0 6.0 0.00 0.00 0.00 84 1006.0
20260902114122 61 135 2.0 6.0 0.00 0.00 0.00 84 1006.0
20260902113122 61 138 2.0 5.0 0.00 0.00 0.00 84 1006.0
20260902112143 61 0 0.0 0.0 0.00 0.00 0.00 83 1006.1
20260902111144 62 0 0.0 0.0 0.00 0.00 0.00 83 1006.3
20260902110122 62 0 0.0 2.0 0.00 0.00 0.00 83 1006.4
20260902105122 62 124 0.0 3.0 0.00 0.00 0.00 82 1006.4
20260902104122 62 138 1.0 6.0 0.00 0.00 0.00 81 1006.6
20260902103124 62 117 1.0 6.0 0.00 0.00 0.00 81 1006.6
20260902102124 62 0 0.0 0.0 0.00 0.00 0.00 80 1006.7
20260902101122 62 128 1.0 8.0 0.00 0.00 0.00 80 1006.7
20260902100122 62 143 3.0 13.0 0.00 0.00 0.00 80 1006.8
20260902095144 62 149 3.0 14.0 0.00 0.00 0.00 80 1006.8
20260902094145 62 149 5.0 19.0 0.00 0.00 0.00 80 1006.9
20260902093122 62 147 5.0 21.0 0.00 0.00 0.00 81 1007.0
20260902092122 62 165 2.0 11.0 0.00 0.00 0.00 81 1007.1
20260902091124 62 161 2.0 11.0 0.00 0.00 0.00 82 1007.2
20260902090122 62 151 4.0 11.0 0.00 0.00 0.00 84 1007.2
20260902085122 61 126 3.0 11.0 0.00 0.00 0.00 88 1007.2
20260902084122 61 126 4.0 11.0 0.00 0.00 0.00 89 1007.2
20260902083123 61 128 6.0 14.0 0.00 0.00 0.00 89 1007.3
20260902082123 61 126 5.0 14.0 0.00 0.00 0.00 90 1007.2
20260902081123 61 126 5.0 13.0 0.00 0.00 0.00 90 1007.3
20260902080143 61 128 4.0 11.0 0.00 0.00 0.00 91 1007.2
20260902075143 61 127 4.0 13.0 0.00 0.00 0.00 91 1007.2
20260902074122 61 123 4.0 11.0 0.00 0.00 0.00 91 1007.2
20260902073122 61 123 3.0 11.0 0.00 0.00 0.00 91 1007.3
20260902072122 61 124 3.0 8.0 0.00 0.00 0.00 91 1007.3
20260902071122 61 125 3.0 10.0 0.00 0.00 0.00 91 1007.3
20260902070122 61 125 4.0 13.0 0.00 0.00 0.00 91 1007.3
20260902065124 61 120 2.0 6.0 0.00 0.00 0.00 91 1007.4